Private Wetterstation Wechselburg
Wetterdaten: Mittwoch, 12.06.2019
Datum Zeit Temp. +2m Bodentemp. Temp.+5cm Temp. Wind Windchill X Diff Temp. Feuchte +2m Feuchte +5cm Luftdruck Regen Wind Richtung Richtung Sonnenschein Taupunkt Windchill Windben
12.06.2019 00:00 20,1 C 19,8 C 19,4 C 19,8 C 19,1 C 0,0 C 82 % 86 % 1008,9 hPa 0,0 l/m 0,8 km/h (0 Bft) O-NO 67 0 min 16,9 C 19,1 C 2,6 km/h (1 Bft)
12.06.2019 00:05 19,9 C 19,8 C 19,3 C 19,6 C 19,0 C 0,0 C 83 % 86 % 1009,0 hPa 0,0 l/m 1,6 km/h (1 Bft) SO 135 0 min 16,9 C 19,0 C 0,0 km/h (0 Bft)
12.06.2019 00:11 19,9 C 19,8 C 19,2 C 19,6 C 18,9 C 0,0 C 83 % 86 % 1009,0 hPa 0,0 l/m 1,1 km/h (1 Bft) N 0 0 min 16,9 C 18,9 C 0,0 km/h (0 Bft)
12.06.2019 00:24 19,9 C 19,7 C 19,5 C 19,8 C 19,5 C 0,0 C 84 % 86 % 1009,2 hPa 0,0 l/m 2,9 km/h (1 Bft) O-NO 67 0 min 17,1 C 19,5 C 4,8 km/h (1 Bft)
12.06.2019 00:25 19,9 C 19,7 C 19,5 C 19,8 C 19,5 C 0,0 C 84 % 86 % 1009,2 hPa 0,0 l/m 2,9 km/h (1 Bft) O-NO 67 0 min 17,1 C 19,5 C 4,8 km/h (1 Bft)
12.06.2019 00:35 20,0 C 19,7 C 19,5 C 19,9 C 19,8 C 0,0 C 85 % 86 % 1009,2 hPa 0,0 l/m 2,9 km/h (1 Bft) NO 45 0 min 17,4 C 19,8 C 3,7 km/h (1 Bft)
12.06.2019 00:40 20,1 C 19,7 C 19,5 C 20,0 C 19,8 C 0,0 C 84 % 86 % 1009,2 hPa 0,0 l/m 2,4 km/h (1 Bft) O-NO 67 0 min 17,3 C 19,8 C 3,7 km/h (1 Bft)
12.06.2019 00:45 20,1 C 19,7 C 19,5 C 20,0 C 19,8 C 0,0 C 84 % 86 % 1009,1 hPa 0,0 l/m 3,1 km/h (1 Bft) O-NO 67 0 min 17,3 C 19,8 C 5,5 km/h (1 Bft)
12.06.2019 00:50 20,1 C 19,7 C 19,6 C 20,0 C 19,8 C 0,0 C 84 % 85 % 1009,1 hPa 0,0 l/m 4,5 km/h (1 Bft) O-NO 67 0 min 17,3 C 19,8 C 5,1 km/h (1 Bft)
12.06.2019 00:55 20,1 C 19,7 C 19,5 C 20,0 C 19,7 C 0,0 C 84 % 85 % 1009,1 hPa 0,0 l/m 3,2 km/h (1 Bft) W-SW 247 0 min 17,3 C 19,7 C 0,0 km/h (0 Bft)
12.06.2019 01:00 20,1 C 19,7 C 19,5 C 19,9 C 19,6 C 0,0 C 84 % 86 % 1009,1 hPa 0,0 l/m 1,0 km/h (0 Bft) W-SW 247 0 min 17,3 C 19,6 C 0,0 km/h (0 Bft)
12.06.2019 01:05 20,0 C 19,7 C 19,4 C 19,8 C 19,3 C 0,0 C 84 % 86 % 1009,0 hPa 0,0 l/m 0,5 km/h (0 Bft) O-NO 67 0 min 17,2 C 19,3 C 3,4 km/h (1 Bft)
12.06.2019 01:10 20,0 C 19,7 C 19,3 C 19,8 C 19,3 C 0,0 C 84 % 87 % 1009,0 hPa 0,0 l/m 2,1 km/h (1 Bft) O-NO 67 0 min 17,2 C 19,3 C 4,3 km/h (1 Bft)
12.06.2019 01:15 20,0 C 19,7 C 19,3 C 19,8 C 19,4 C 0,0 C 84 % 87 % 1009,0 hPa 0,0 l/m 3,4 km/h (1 Bft) O-NO 67 0 min 17,2 C 19,4 C 0,0 km/h (0 Bft)
12.06.2019 01:20 20,1 C 19,7 C 19,3 C 19,8 C 19,3 C 0,0 C 84 % 87 % 1009,0 hPa 0,0 l/m 1,8 km/h (1 Bft) NW 315 0 min 17,3 C 19,3 C 0,0 km/h (0 Bft)
12.06.2019 01:25 20,0 C 19,7 C 19,2 C 19,7 C 19,1 C 0,0 C 84 % 87 % 1009,2 hPa 0,0 l/m 0,0 km/h (0 Bft) W-SW 247 0 min 17,2 C 19,1 C 0,0 km/h (0 Bft)
12.06.2019 01:30 19,9 C 19,7 C 19,1 C 19,6 C 18,9 C 0,0 C 84 % 87 % 1009,2 hPa 0,0 l/m 0,0 km/h (0 Bft) S 180 0 min 17,1 C 18,9 C 0,0 km/h (0 Bft)
12.06.2019 01:35 19,9 C 19,7 C 19,1 C 19,6 C 18,9 C 0,0 C 84 % 88 % 1009,2 hPa 0,0 l/m 0,2 km/h (0 Bft) W-NW 292 0 min 17,1 C 18,9 C 0,0 km/h (0 Bft)
12.06.2019 01:40 19,9 C 19,7 C 19,1 C 19,6 C 18,9 C 0,0 C 85 % 88 % 1009,2 hPa 0,0 l/m 0,2 km/h (0 Bft) SW 225 0 min 17,3 C 18,9 C 0,0 km/h (0 Bft)
12.06.2019 01:45 19,9 C 19,7 C 19,1 C 19,6 C 19,1 C 0,0 C 85 % 88 % 1009,7 hPa 0,0 l/m 0,3 km/h (0 Bft) W 270 0 min 17,3 C 19,1 C 0,0 km/h (0 Bft)
12.06.2019 01:50 19,8 C 19,7 C 19,1 C 19,6 C 19,1 C 0,0 C 85 % 88 % 1009,7 hPa 0,0 l/m 0,5 km/h (0 Bft) W-SW 247 0 min 17,2 C 19,1 C 0,0 km/h (0 Bft)
12.06.2019 01:55 19,7 C 19,7 C 19,1 C 19,5 C 19,2 C 0,0 C 85 % 88 % 1009,7 hPa 0,0 l/m 0,8 km/h (0 Bft) W-SW 247 0 min 17,1 C 19,2 C 3,4 km/h (1 Bft)
12.06.2019 02:00 19,7 C 19,7 C 19,1 C 19,6 C 19,3 C 0,0 C 85 % 88 % 1009,7 hPa 0,0 l/m 1,4 km/h (1 Bft) W-SW 247 0 min 17,1 C 19,3 C 3,9 km/h (1 Bft)
12.06.2019 02:05 19,7 C 19,7 C 19,1 C 19,6 C 19,3 C 0,0 C 85 % 88 % 1009,4 hPa 0,0 l/m 2,1 km/h (1 Bft) N-NW 337 0 min 17,1 C 19,3 C 5,0 km/h (1 Bft)
12.06.2019 02:11 19,6 C 19,7 C 19,1 C 19,5 C 19,3 C 0,0 C 85 % 88 % 1009,4 hPa 0,0 l/m 1,8 km/h (1 Bft) N 0 0 min 17,0 C 19,3 C 2,3 km/h (1 Bft)
12.06.2019 02:26 19,5 C 19,7 C 19,0 C 19,4 C 19,2 C 0,0 C 86 % 88 % 1009,4 hPa 0,0 l/m 0,5 km/h (0 Bft) S 180 0 min 17,1 C 19,2 C 0,0 km/h (0 Bft)
12.06.2019 02:35 19,5 C 19,7 C 19,0 C 19,4 C 19,1 C 0,0 C 86 % 88 % 1009,4 hPa 0,0 l/m 0,2 km/h (0 Bft) N-NO 22 0 min 17,1 C 19,1 C 0,0 km/h (0 Bft)
12.06.2019 02:40 19,4 C 19,7 C 18,9 C 19,3 C 19,1 C 0,0 C 86 % 88 % 1009,4 hPa 0,0 l/m 0,2 km/h (0 Bft) N-NW 337 0 min 17,0 C 19,1 C 0,0 km/h (0 Bft)
12.06.2019 02:45 19,5 C 19,7 C 18,9 C 19,4 C 19,1 C 0,0 C 86 % 88 % 1009,7 hPa 0,0 l/m 0,3 km/h (0 Bft) S 180 0 min 17,1 C 19,1 C 0,0 km/h (0 Bft)
12.06.2019 02:50 19,4 C 19,6 C 18,9 C 19,3 C 19,1 C 0,0 C 86 % 88 % 1009,7 hPa 0,0 l/m 0,8 km/h (0 Bft) SW 225 0 min 17,0 C 19,1 C 0,0 km/h (0 Bft)
12.06.2019 02:55 19,3 C 19,6 C 18,9 C 19,2 C 19,1 C 0,0 C 86 % 88 % 1009,7 hPa 0,0 l/m 0,6 km/h (0 Bft) SO 135 0 min 16,9 C 19,1 C 0,0 km/h (0 Bft)
12.06.2019 03:00 19,3 C 19,6 C 18,9 C 19,2 C 19,1 C 0,0 C 86 % 88 % 1009,7 hPa 0,0 l/m 0,2 km/h (0 Bft) SW 225 0 min 16,9 C 19,1 C 0,0 km/h (0 Bft)
12.06.2019 03:05 19,3 C 19,7 C 18,8 C 19,2 C 19,1 C 0,0 C 86 % 89 % 1010,1 hPa 0,0 l/m 0,0 km/h (0 Bft) W 270 0 min 16,9 C 19,1 C 0,0 km/h (0 Bft)
12.06.2019 03:10 19,2 C 19,6 C 18,8 C 19,1 C 19,0 C 0,0 C 86 % 89 % 1010,1 hPa 0,0 l/m 0,2 km/h (0 Bft) S-SW 202 0 min 16,8 C 19,0 C 1,6 km/h (1 Bft)
12.06.2019 03:15 19,3 C 19,6 C 18,7 C 19,2 C 19,0 C 0,0 C 86 % 89 % 1010,1 hPa 0,0 l/m 0,3 km/h (0 Bft) NW 315 0 min 16,9 C 19,0 C 0,0 km/h (0 Bft)
12.06.2019 03:20 19,2 C 19,6 C 18,7 C 19,1 C 18,9 C 0,0 C 86 % 89 % 1010,1 hPa 0,0 l/m 0,5 km/h (0 Bft) SW 225 0 min 16,8 C 18,9 C 0,0 km/h (0 Bft)
12.06.2019 03:25 19,1 C 19,6 C 18,7 C 19,0 C 18,9 C 0,0 C 86 % 88 % 1009,8 hPa 0,0 l/m 0,6 km/h (0 Bft) SO 135 0 min 16,7 C 18,9 C 1,6 km/h (1 Bft)
12.06.2019 03:30 19,1 C 19,6 C 18,7 C 19,0 C 18,8 C 0,0 C 86 % 88 % 1009,8 hPa 0,0 l/m 0,6 km/h (0 Bft) NW 315 0 min 16,7 C 18,8 C 3,1 km/h (1 Bft)
12.06.2019 03:35 19,1 C 19,6 C 18,5 C 18,9 C 18,6 C 0,0 C 86 % 89 % 1009,8 hPa 0,0 l/m 0,6 km/h (0 Bft) NW 315 0 min 16,7 C 18,6 C 3,4 km/h (1 Bft)
12.06.2019 03:40 18,9 C 19,6 C 18,4 C 18,7 C 18,4 C 0,0 C 86 % 89 % 1009,8 hPa 0,0 l/m 0,5 km/h (0 Bft) N-NO 22 0 min 16,5 C 18,4 C 0,0 km/h (0 Bft)
12.06.2019 03:45 18,8 C 19,7 C 18,3 C 18,6 C 18,1 C 0,0 C 86 % 89 % 1009,6 hPa 0,0 l/m 0,3 km/h (0 Bft) W 270 0 min 16,4 C 18,1 C 0,0 km/h (0 Bft)
12.06.2019 03:50 18,8 C 19,7 C 18,3 C 18,5 C 18,0 C 0,0 C 86 % 89 % 1009,6 hPa 0,0 l/m 0,3 km/h (0 Bft) O-NO 67 0 min 16,4 C 18,0 C 0,0 km/h (0 Bft)
12.06.2019 03:55 18,7 C 19,7 C 18,2 C 18,5 C 18,0 C 0,0 C 86 % 89 % 1009,6 hPa 0,0 l/m 0,5 km/h (0 Bft) NW 315 0 min 16,3 C 18,0 C 2,4 km/h (1 Bft)
12.06.2019 04:00 18,6 C 19,6 C 18,2 C 18,4 C 18,1 C 0,0 C 86 % 89 % 1009,6 hPa 0,0 l/m 0,6 km/h (0 Bft) W-NW 292 0 min 16,2 C 18,1 C 2,1 km/h (1 Bft)
12.06.2019 04:05 18,7 C 19,6 C 18,3 C 18,5 C 18,2 C 0,0 C 86 % 89 % 1010,1 hPa 0,0 l/m 0,5 km/h (0 Bft) SO 135 0 min 16,3 C 18,2 C 0,0 km/h (0 Bft)
12.06.2019 04:11 18,7 C 19,6 C 18,3 C 18,6 C 18,3 C 0,0 C 86 % 89 % 1010,1 hPa 0,0 l/m 0,2 km/h (0 Bft) N 0 0 min 16,3 C 18,3 C 0,0 km/h (0 Bft)
12.06.2019 04:26 18,5 C 19,6 C 18,2 C 18,4 C 18,3 C 0,0 C 87 % 89 % 1009,8 hPa 0,0 l/m 0,8 km/h (0 Bft) NW 315 0 min 16,3 C 18,3 C 1,6 km/h (1 Bft)
12.06.2019 04:35 18,5 C 19,6 C 18,2 C 18,4 C 18,3 C 0,0 C 87 % 90 % 1009,8 hPa 0,0 l/m 0,2 km/h (0 Bft) W-NW 292 0 min 16,3 C 18,3 C 0,0 km/h (0 Bft)
12.06.2019 04:40 18,5 C 19,5 C 18,2 C 18,4 C 18,3 C 0,0 C 87 % 89 % 1009,8 hPa 0,0 l/m 0,0 km/h (0 Bft) SW 225 0 min 16,3 C 18,3 C 0,0 km/h (0 Bft)
12.06.2019 04:45 18,4 C 19,5 C 18,1 C 18,4 C 18,3 C 0,0 C 87 % 89 % 1009,8 hPa 0,0 l/m 0,0 km/h (0 Bft) W-SW 247 0 min 16,2 C 18,3 C 0,0 km/h (0 Bft)
12.06.2019 04:50 18,4 C 19,5 C 18,2 C 18,4 C 18,3 C 0,0 C 87 % 89 % 1009,8 hPa 0,0 l/m 0,0 km/h (0 Bft) SO 135 0 min 16,2 C 18,3 C 0,0 km/h (0 Bft)
12.06.2019 04:55 18,3 C 19,5 C 18,1 C 18,3 C 18,3 C 0,0 C 87 % 90 % 1009,8 hPa 0,0 l/m 0,0 km/h (0 Bft) S-SO 157 0 min 16,1 C 18,3 C 0,0 km/h (0 Bft)
12.06.2019 05:00 18,3 C 19,5 C 18,1 C 18,3 C 18,2 C 0,0 C 87 % 90 % 1009,8 hPa 0,0 l/m 0,0 km/h (0 Bft) S 180 0 min 16,1 C 18,2 C 0,0 km/h (0 Bft)
12.06.2019 05:05 18,2 C 19,5 C 18,1 C 18,2 C 18,2 C 0,0 C 87 % 90 % 1009,6 hPa 0,0 l/m 0,0 km/h (0 Bft) NO 45 0 min 16,0 C 18,2 C 0,0 km/h (0 Bft)
12.06.2019 05:10 18,3 C 19,6 C 18,0 C 18,3 C 18,2 C 0,0 C 87 % 90 % 1009,6 hPa 0,0 l/m 0,0 km/h (0 Bft) W 270 0 min 16,1 C 18,2 C 0,0 km/h (0 Bft)
12.06.2019 05:15 18,3 C 19,6 C 18,0 C 18,3 C 18,2 C 0,0 C 87 % 90 % 1009,6 hPa 0,0 l/m 0,0 km/h (0 Bft) O-NO 67 0 min 16,1 C 18,2 C 0,0 km/h (0 Bft)
12.06.2019 05:20 18,3 C 19,6 C 18,0 C 18,3 C 18,2 C 0,0 C 87 % 90 % 1009,6 hPa 0,0 l/m 0,2 km/h (0 Bft) O-NO 67 0 min 16,1 C 18,2 C 2,1 km/h (1 Bft)
12.06.2019 05:25 18,2 C 19,6 C 17,9 C 18,2 C 18,2 C 0,0 C 87 % 90 % 1009,6 hPa 0,0 l/m 0,2 km/h (0 Bft) N-NO 22 0 min 16,0 C 18,2 C 0,0 km/h (0 Bft)
12.06.2019 05:30 18,2 C 19,7 C 18,0 C 18,2 C 18,2 C 0,0 C 87 % 90 % 1009,6 hPa 0,0 l/m 0,2 km/h (0 Bft) O-SO 112 0 min 16,0 C 18,2 C 0,0 km/h (0 Bft)
12.06.2019 05:35 18,2 C 19,6 C 17,9 C 18,2 C 18,2 C 0,0 C 87 % 90 % 1009,6 hPa 0,0 l/m 0,0 km/h (0 Bft) W-NW 292 0 min 16,0 C 18,2 C 0,0 km/h (0 Bft)
12.06.2019 05:40 18,1 C 19,6 C 18,0 C 18,3 C 18,3 C 0,2 C 87 % 90 % 1009,6 hPa 0,0 l/m 0,0 km/h (0 Bft) NO 45 0 min 15,9 C 18,3 C 0,0 km/h (0 Bft)
12.06.2019 05:45 18,1 C 19,6 C 18,0 C 18,3 C 18,3 C 0,2 C 87 % 90 % 1009,7 hPa 0,0 l/m 0,0 km/h (0 Bft) N-NO 22 0 min 15,9 C 18,3 C 0,0 km/h (0 Bft)
12.06.2019 05:50 18,1 C 19,6 C 18,0 C 18,3 C 18,3 C 0,2 C 87 % 90 % 1009,7 hPa 0,0 l/m 0,0 km/h (0 Bft) O-NO 67 0 min 15,9 C 18,3 C 0,0 km/h (0 Bft)
12.06.2019 05:55 18,1 C 19,6 C 18,1 C 18,4 C 18,4 C 0,3 C 87 % 90 % 1009,7 hPa 0,0 l/m 0,0 km/h (0 Bft) W-NW 292 0 min 15,9 C 18,4 C 0,0 km/h (0 Bft)
12.06.2019 06:00 18,1 C 19,6 C 18,0 C 18,4 C 18,4 C 0,3 C 87 % 90 % 1009,7 hPa 0,0 l/m 0,0 km/h (0 Bft) NW 315 0 min 15,9 C 18,4 C 0,0 km/h (0 Bft)
12.06.2019 06:05 18,1 C 19,5 C 18,0 C 18,4 C 18,4 C 0,3 C 87 % 90 % 1009,4 hPa 0,0 l/m 0,0 km/h (0 Bft) N-NW 337 0 min 15,9 C 18,4 C 0,0 km/h (0 Bft)
12.06.2019 06:11 18,1 C 19,5 C 18,0 C 18,4 C 18,4 C 0,3 C 87 % 90 % 1009,4 hPa 0,0 l/m 0,0 km/h (0 Bft) N 0 0 min 15,9 C 18,4 C 0,0 km/h (0 Bft)
12.06.2019 06:26 18,3 C 19,5 C 18,2 C 18,9 C 18,9 C 0,6 C 87 % 90 % 1009,4 hPa 0,0 l/m 0,0 km/h (0 Bft) W-SW 247 0 min 16,1 C 18,9 C 0,0 km/h (0 Bft)
12.06.2019 06:35 18,2 C 19,5 C 18,3 C 19,0 C 19,0 C 0,8 C 87 % 90 % 1009,4 hPa 0,0 l/m 0,0 km/h (0 Bft) S-SW 202 0 min 16,0 C 19,0 C 0,0 km/h (0 Bft)
12.06.2019 06:40 18,2 C 19,5 C 18,3 C 19,1 C 19,1 C 0,9 C 87 % 90 % 1009,4 hPa 0,0 l/m 0,0 km/h (0 Bft) S-SO 157 0 min 16,0 C 19,1 C 0,0 km/h (0 Bft)
12.06.2019 06:45 18,3 C 19,5 C 18,3 C 19,3 C 19,3 C 1,0 C 87 % 90 % 1009,6 hPa 0,0 l/m 0,0 km/h (0 Bft) S 180 0 min 16,1 C 19,3 C 0,0 km/h (0 Bft)
12.06.2019 06:50 18,4 C 19,5 C 18,4 C 19,4 C 19,4 C 1,0 C 87 % 90 % 1009,6 hPa 0,0 l/m 0,0 km/h (0 Bft) W-NW 292 0 min 16,2 C 19,4 C 0,0 km/h (0 Bft)
12.06.2019 06:55 18,4 C 19,5 C 18,5 C 19,6 C 19,6 C 1,2 C 87 % 90 % 1009,6 hPa 0,0 l/m 0,0 km/h (0 Bft) O-NO 67 0 min 16,2 C 19,6 C 0,0 km/h (0 Bft)
12.06.2019 07:00 18,4 C 19,4 C 18,7 C 20,0 C 20,0 C 1,6 C 87 % 89 % 1009,6 hPa 0,0 l/m 0,0 km/h (0 Bft) NO 45 0 min 16,2 C 20,0 C 0,0 km/h (0 Bft)
12.06.2019 07:05 18,5 C 19,4 C 18,9 C 21,0 C 21,0 C 2,5 C 87 % 89 % 1009,2 hPa 0,0 l/m 0,0 km/h (0 Bft) S 180 0 min 16,3 C 21,0 C 0,0 km/h (0 Bft)
12.06.2019 07:10 18,7 C 19,4 C 19,0 C 21,2 C 21,2 C 2,5 C 87 % 88 % 1009,2 hPa 0,0 l/m 0,6 km/h (0 Bft) O-NO 67 0 min 16,5 C 21,2 C 2,4 km/h (1 Bft)
12.06.2019 07:15 18,8 C 19,4 C 19,0 C 21,0 C 21,0 C 2,2 C 87 % 88 % 1009,2 hPa 0,0 l/m 2,4 km/h (1 Bft) O-NO 67 0 min 16,6 C 21,0 C 2,9 km/h (1 Bft)
12.06.2019 07:20 18,8 C 19,3 C 19,1 C 21,0 C 21,0 C 2,2 C 87 % 88 % 1009,2 hPa 0,0 l/m 3,1 km/h (1 Bft) NO 45 0 min 16,6 C 21,0 C 3,7 km/h (1 Bft)
12.06.2019 07:25 18,8 C 19,3 C 19,1 C 21,4 C 21,4 C 2,6 C 87 % 88 % 1008,7 hPa 0,0 l/m 2,7 km/h (1 Bft) NO 45 0 min 16,6 C 21,4 C 0,0 km/h (0 Bft)
12.06.2019 07:30 18,9 C 19,3 C 19,2 C 21,7 C 21,7 C 2,8 C 87 % 88 % 1008,7 hPa 0,0 l/m 1,8 km/h (1 Bft) O 90 0 min 16,7 C 21,7 C 0,0 km/h (0 Bft)
12.06.2019 07:35 19,1 C 19,3 C 19,3 C 22,2 C 22,2 C 3,1 C 87 % 88 % 1008,7 hPa 0,0 l/m 0,6 km/h (0 Bft) O-NO 67 0 min 16,9 C 22,2 C 1,8 km/h (1 Bft)
12.06.2019 07:40 19,3 C 19,3 C 19,5 C 22,8 C 22,8 C 3,5 C 87 % 88 % 1008,7 hPa 0,0 l/m 0,8 km/h (0 Bft) O-NO 67 5 min 17,1 C 22,8 C 0,0 km/h (0 Bft)
12.06.2019 07:45 19,5 C 19,3 C 19,4 C 22,5 C 22,5 C 3,0 C 87 % 87 % 1009,1 hPa 0,0 l/m 0,8 km/h (0 Bft) W 270 0 min 17,3 C 22,5 C 2,9 km/h (1 Bft)
12.06.2019 07:50 19,6 C 19,3 C 19,5 C 22,4 C 22,4 C 2,8 C 87 % 88 % 1009,1 hPa 0,0 l/m 0,6 km/h (0 Bft) O 90 0 min 17,4 C 22,4 C 1,8 km/h (1 Bft)
12.06.2019 07:55 19,7 C 19,3 C 19,5 C 22,3 C 22,3 C 2,6 C 87 % 87 % 1009,1 hPa 0,0 l/m 1,0 km/h (0 Bft) NW 315 0 min 17,5 C 22,3 C 2,9 km/h (1 Bft)
12.06.2019 08:00 19,9 C 19,3 C 19,5 C 22,7 C 22,7 C 2,8 C 86 % 86 % 1009,1 hPa 0,0 l/m 1,0 km/h (0 Bft) NO 45 0 min 17,5 C 22,7 C 0,0 km/h (0 Bft)
12.06.2019 08:05 19,9 C 19,3 C 19,5 C 22,3 C 22,3 C 2,4 C 86 % 87 % 1009,2 hPa 0,0 l/m 1,4 km/h (1 Bft) O-NO 67 0 min 17,5 C 22,3 C 1,9 km/h (1 Bft)
12.06.2019 08:11 19,9 C 19,3 C 19,5 C 21,9 C 21,9 C 2,0 C 85 % 86 % 1009,2 hPa 0,0 l/m 1,1 km/h (1 Bft) N 0 0 min 17,3 C 21,9 C 0,0 km/h (0 Bft)
12.06.2019 08:26 20,0 C 19,2 C 19,8 C 22,7 C 22,7 C 2,7 C 86 % 86 % 1008,8 hPa 0,0 l/m 1,8 km/h (1 Bft) O-NO 67 0 min 17,6 C 22,7 C 1,9 km/h (1 Bft)
12.06.2019 08:35 20,4 C 19,2 C 20,1 C 23,4 C 23,4 C 3,0 C 86 % 86 % 1008,8 hPa 0,0 l/m 1,6 km/h (1 Bft) O-NO 67 0 min 18,0 C 23,4 C 3,4 km/h (1 Bft)
12.06.2019 08:40 20,6 C 19,2 C 20,2 C 24,8 C 24,8 C 4,2 C 86 % 85 % 1008,8 hPa 0,0 l/m 2,4 km/h (1 Bft) O-NO 67 5 min 18,2 C 24,8 C 5,0 km/h (1 Bft)
12.06.2019 08:45 21,0 C 19,2 C 20,3 C 25,6 C 25,6 C 4,6 C 85 % 85 % 1008,7 hPa 0,0 l/m 2,9 km/h (1 Bft) O-NO 67 5 min 18,4 C 25,6 C 0,0 km/h (0 Bft)
12.06.2019 08:50 21,3 C 19,2 C 20,4 C 27,2 C 27,2 C 5,9 C 85 % 86 % 1008,7 hPa 0,0 l/m 2,1 km/h (1 Bft) NO 45 5 min 18,7 C 27,2 C 3,9 km/h (1 Bft)
12.06.2019 08:55 21,7 C 19,2 C 20,7 C 27,9 C 27,9 C 6,2 C 84 % 85 % 1008,7 hPa 0,0 l/m 1,4 km/h (1 Bft) W-NW 292 5 min 18,9 C 27,9 C 0,0 km/h (0 Bft)
12.06.2019 09:00 21,6 C 19,2 C 20,9 C 28,8 C 28,8 C 7,2 C 83 % 85 % 1008,7 hPa 0,0 l/m 1,6 km/h (1 Bft) W-NW 292 5 min 18,6 C 28,8 C 1,8 km/h (1 Bft)
12.06.2019 09:05 21,7 C 19,2 C 20,9 C 28,1 C 28,1 C 6,4 C 82 % 84 % 1008,6 hPa 0,0 l/m 2,1 km/h (1 Bft) NO 45 5 min 18,5 C 28,1 C 3,7 km/h (1 Bft)
12.06.2019 09:10 21,5 C 19,2 C 20,7 C 26,0 C 26,0 C 4,5 C 81 % 84 % 1008,6 hPa 0,0 l/m 2,1 km/h (1 Bft) W 270 5 min 18,1 C 26,0 C 0,0 km/h (0 Bft)
12.06.2019 09:15 21,4 C 19,2 C 20,7 C 25,0 C 25,0 C 3,6 C 81 % 84 % 1008,6 hPa 0,0 l/m 0,6 km/h (0 Bft) NO 45 5 min 18,0 C 25,0 C 0,0 km/h (0 Bft)
12.06.2019 09:20 21,5 C 19,2 C 20,8 C 24,7 C 24,7 C 3,2 C 81 % 84 % 1008,6 hPa 0,0 l/m 0,2 km/h (0 Bft) W-SW 247 0 min 18,1 C 24,7 C 0,0 km/h (0 Bft)
12.06.2019 09:25 21,6 C 19,2 C 20,9 C 24,9 C 24,9 C 3,3 C 81 % 85 % 1008,7 hPa 0,0 l/m 0,0 km/h (0 Bft) W-NW 292 5 min 18,2 C 24,9 C 0,0 km/h (0 Bft)
12.06.2019 09:30 21,5 C 19,2 C 20,9 C 25,1 C 25,1 C 3,6 C 81 % 84 % 1008,7 hPa 0,0 l/m 0,5 km/h (0 Bft) W 270 5 min 18,1 C 25,1 C 0,0 km/h (0 Bft)
12.06.2019 09:35 21,6 C 19,2 C 21,0 C 26,5 C 26,5 C 4,9 C 81 % 84 % 1008,7 hPa 0,0 l/m 0,3 km/h (0 Bft) SW 225 5 min 18,2 C 26,5 C 0,0 km/h (0 Bft)
12.06.2019 09:40 21,9 C 19,2 C 21,1 C 28,0 C 28,0 C 6,1 C 82 % 83 % 1008,7 hPa 0,0 l/m 0,2 km/h (0 Bft) NW 315 5 min 18,7 C 28,0 C 1,8 km/h (1 Bft)
12.06.2019 09:45 22,2 C 19,1 C 21,3 C 27,2 C 27,2 C 5,0 C 81 % 83 % 1008,2 hPa 0,0 l/m 0,6 km/h (0 Bft) NW 315 5 min 18,8 C 27,2 C 0,0 km/h (0 Bft)
12.06.2019 09:50 22,4 C 19,1 C 21,3 C 26,7 C 26,7 C 4,3 C 81 % 83 % 1008,2 hPa 0,0 l/m 1,0 km/h (0 Bft) NW 315 5 min 19,0 C 26,7 C 1,8 km/h (1 Bft)
12.06.2019 09:55 22,5 C 19,1 C 21,3 C 27,4 C 27,4 C 4,9 C 80 % 83 % 1008,2 hPa 0,0 l/m 1,1 km/h (1 Bft) W 270 5 min 18,9 C 27,4 C 6,1 km/h (2 Bft)
12.06.2019 10:00 22,4 C 19,1 C 21,3 C 27,5 C 27,5 C 5,1 C 80 % 83 % 1008,2 hPa 0,0 l/m 1,4 km/h (1 Bft) N-NO 22 5 min 18,8 C 27,5 C 0,0 km/h (0 Bft)
12.06.2019 10:05 22,5 C 19,1 C 21,3 C 27,0 C 27,0 C 4,5 C 80 % 83 % 1008,1 hPa 0,0 l/m 2,1 km/h (1 Bft) N-NO 22 5 min 18,9 C 27,0 C 3,4 km/h (1 Bft)
12.06.2019 10:11 22,5 C 19,2 C 21,4 C 27,5 C 27,5 C 5,0 C 80 % 82 % 1008,1 hPa 0,0 l/m 1,9 km/h (1 Bft) N 0 6 min 18,9 C 27,5 C 0,0 km/h (0 Bft)
12.06.2019 10:26 22,6 C 19,2 C 21,9 C 28,0 C 28,0 C 5,4 C 79 % 81 % 1007,9 hPa 0,0 l/m 4,7 km/h (1 Bft) NO 45 15 min 18,8 C 28,0 C 3,9 km/h (1 Bft)
12.06.2019 10:35 23,0 C 19,2 C 22,2 C 28,5 C 28,5 C 5,5 C 80 % 81 % 1007,9 hPa 0,0 l/m 3,7 km/h (1 Bft) O-NO 67 9 min 19,4 C 28,5 C 7,6 km/h (2 Bft)
12.06.2019 10:40 23,1 C 19,2 C 22,3 C 28,3 C 28,3 C 5,2 C 79 % 80 % 1007,9 hPa 0,0 l/m 4,8 km/h (1 Bft) O-NO 67 5 min 19,3 C 28,3 C 5,5 km/h (1 Bft)
12.06.2019 10:45 23,2 C 19,2 C 22,3 C 27,6 C 27,6 C 4,4 C 80 % 82 % 1007,9 hPa 0,0 l/m 3,9 km/h (1 Bft) O-NO 67 5 min 19,6 C 27,6 C 5,8 km/h (2 Bft)
12.06.2019 10:50 23,4 C 19,2 C 22,5 C 28,3 C 28,3 C 4,9 C 80 % 81 % 1007,9 hPa 0,0 l/m 2,4 km/h (1 Bft) W 270 5 min 19,7 C 28,3 C 3,4 km/h (1 Bft)
12.06.2019 10:55 23,6 C 19,2 C 22,8 C 28,9 C 28,9 C 5,3 C 79 % 81 % 1007,9 hPa 0,0 l/m 3,2 km/h (1 Bft) NO 45 5 min 19,7 C 28,9 C 3,9 km/h (1 Bft)
12.06.2019 11:00 23,9 C 19,2 C 23,1 C 29,6 C 29,6 C 5,7 C 79 % 80 % 1007,9 hPa 0,0 l/m 3,4 km/h (1 Bft) O-SO 112 5 min 20,0 C 29,6 C 3,7 km/h (1 Bft)
12.06.2019 11:05 24,3 C 19,2 C 23,2 C 31,0 C 31,0 C 6,7 C 79 % 80 % 1007,8 hPa 0,0 l/m 2,3 km/h (1 Bft) O-NO 67 5 min 20,4 C 31,0 C 5,5 km/h (1 Bft)
12.06.2019 11:10 24,6 C 19,2 C 23,4 C 30,9 C 30,9 C 6,3 C 78 % 78 % 1007,8 hPa 0,0 l/m 2,3 km/h (1 Bft) O-NO 67 5 min 20,5 C 30,9 C 5,6 km/h (1 Bft)
12.06.2019 11:15 24,7 C 19,3 C 23,5 C 31,0 C 31,0 C 6,3 C 77 % 80 % 1007,8 hPa 0,0 l/m 2,4 km/h (1 Bft) NW 315 5 min 20,4 C 31,0 C 0,0 km/h (0 Bft)
12.06.2019 11:20 24,6 C 19,3 C 23,6 C 31,4 C 31,4 C 6,8 C 77 % 79 % 1007,8 hPa 0,0 l/m 2,1 km/h (1 Bft) O-SO 112 5 min 20,3 C 31,4 C 2,7 km/h (1 Bft)
12.06.2019 11:25 24,7 C 19,3 C 23,7 C 31,1 C 31,1 C 6,4 C 77 % 79 % 1007,6 hPa 0,0 l/m 2,1 km/h (1 Bft) O-NO 67 5 min 20,4 C 31,1 C 2,1 km/h (1 Bft)
12.06.2019 11:30 24,6 C 19,3 C 23,7 C 31,1 C 31,1 C 6,5 C 77 % 79 % 1007,6 hPa 0,0 l/m 2,6 km/h (1 Bft) NW 315 5 min 20,3 C 31,1 C 2,9 km/h (1 Bft)
12.06.2019 11:35 24,8 C 19,3 C 23,9 C 31,3 C 31,3 C 6,5 C 77 % 78 % 1007,6 hPa 0,0 l/m 3,2 km/h (1 Bft) NO 45 5 min 20,5 C 31,3 C 4,3 km/h (1 Bft)
12.06.2019 11:40 24,8 C 19,3 C 23,9 C 31,1 C 31,1 C 6,3 C 77 % 79 % 1007,6 hPa 0,0 l/m 2,7 km/h (1 Bft) O-NO 67 5 min 20,5 C 31,1 C 2,3 km/h (1 Bft)
12.06.2019 11:45 24,9 C 19,3 C 24,2 C 31,2 C 31,2 C 6,3 C 77 % 79 % 1007,5 hPa 0,0 l/m 2,3 km/h (1 Bft) N-NO 22 5 min 20,6 C 31,2 C 2,6 km/h (1 Bft)
12.06.2019 11:50 25,2 C 19,4 C 24,3 C 31,7 C 31,7 C 6,5 C 78 % 80 % 1007,5 hPa 0,0 l/m 1,9 km/h (1 Bft) NW 315 5 min 21,1 C 31,7 C 2,7 km/h (1 Bft)
12.06.2019 11:55 25,4 C 19,3 C 24,6 C 32,3 C 32,3 C 6,9 C 78 % 79 % 1007,5 hPa 0,0 l/m 1,6 km/h (1 Bft) NW 315 5 min 21,3 C 32,3 C 2,9 km/h (1 Bft)
12.06.2019 12:00 25,6 C 19,3 C 24,7 C 32,5 C 32,5 C 6,9 C 77 % 79 % 1007,5 hPa 0,0 l/m 1,6 km/h (1 Bft) NW 315 5 min 21,3 C 32,5 C 2,3 km/h (1 Bft)
12.06.2019 12:05 25,8 C 19,3 C 24,9 C 32,6 C 32,6 C 6,8 C 77 % 78 % 1007,4 hPa 0,0 l/m 2,1 km/h (1 Bft) O 90 5 min 21,4 C 32,6 C 4,5 km/h (1 Bft)
12.06.2019 12:11 25,9 C 19,3 C 25,1 C 32,5 C 32,5 C 6,6 C 76 % 78 % 1007,4 hPa 0,0 l/m 2,1 km/h (1 Bft) N 0 6 min 21,3 C 32,5 C 0,0 km/h (0 Bft)
12.06.2019 12:26 26,7 C 19,4 C 25,7 C 31,7 C 31,7 C 5,0 C 76 % 77 % 1007,1 hPa 0,0 l/m 4,0 km/h (1 Bft) NO 45 15 min 22,1 C 31,7 C 3,4 km/h (1 Bft)
12.06.2019 12:35 27,5 C 19,5 C 26,1 C 32,4 C 32,4 C 4,9 C 75 % 76 % 1007,1 hPa 0,0 l/m 2,7 km/h (1 Bft) N-NO 22 9 min 22,7 C 32,4 C 0,0 km/h (0 Bft)
12.06.2019 12:40 27,6 C 19,5 C 26,3 C 32,6 C 32,6 C 5,0 C 74 % 75 % 1007,1 hPa 0,0 l/m 3,9 km/h (1 Bft) O-NO 67 5 min 22,5 C 32,6 C 5,5 km/h (1 Bft)
12.06.2019 12:45 27,7 C 19,5 C 26,4 C 32,1 C 32,1 C 4,4 C 72 % 74 % 1007,1 hPa 0,0 l/m 5,1 km/h (1 Bft) NO 45 5 min 22,2 C 32,1 C 10,9 km/h (2 Bft)
12.06.2019 12:50 27,7 C 19,5 C 26,6 C 31,9 C 31,9 C 4,2 C 73 % 75 % 1007,1 hPa 0,0 l/m 5,6 km/h (1 Bft) NO 45 5 min 22,4 C 31,9 C 7,7 km/h (2 Bft)
12.06.2019 12:55 27,9 C 19,5 C 26,8 C 32,1 C 32,1 C 4,2 C 74 % 75 % 1007,1 hPa 0,0 l/m 4,5 km/h (1 Bft) O-NO 67 5 min 22,8 C 32,1 C 2,1 km/h (1 Bft)
12.06.2019 13:00 28,5 C 19,5 C 26,9 C 32,9 C 32,9 C 4,4 C 73 % 74 % 1007,1 hPa 0,0 l/m 3,4 km/h (1 Bft) NW 315 5 min 23,2 C 32,9 C 4,3 km/h (1 Bft)
12.06.2019 13:05 28,7 C 19,5 C 27,0 C 33,3 C 33,3 C 4,6 C 72 % 74 % 1006,9 hPa 0,0 l/m 3,1 km/h (1 Bft) NO 45 5 min 23,1 C 33,3 C 6,0 km/h (2 Bft)
12.06.2019 13:10 28,6 C 19,5 C 27,2 C 33,0 C 33,0 C 4,4 C 72 % 74 % 1006,9 hPa 0,0 l/m 4,0 km/h (1 Bft) O-NO 67 5 min 23,0 C 33,0 C 4,8 km/h (1 Bft)
12.06.2019 13:15 28,8 C 19,6 C 27,6 C 33,4 C 33,4 C 4,6 C 71 % 72 % 1006,9 hPa 0,0 l/m 3,5 km/h (1 Bft) W-NW 292 5 min 23,0 C 33,4 C 5,3 km/h (1 Bft)
12.06.2019 13:20 29,0 C 19,6 C 27,6 C 33,6 C 33,6 C 4,6 C 70 % 71 % 1006,9 hPa 0,0 l/m 2,7 km/h (1 Bft) NO 45 5 min 23,0 C 33,6 C 2,6 km/h (1 Bft)
12.06.2019 13:25 28,8 C 19,6 C 27,7 C 33,1 C 33,1 C 4,3 C 70 % 72 % 1007,0 hPa 0,0 l/m 4,7 km/h (1 Bft) N-NW 337 5 min 22,8 C 33,1 C 11,6 km/h (2 Bft)
12.06.2019 13:30 28,8 C 19,6 C 27,7 C 33,1 C 33,1 C 4,3 C 70 % 71 % 1007,0 hPa 0,0 l/m 5,3 km/h (1 Bft) O-NO 67 5 min 22,8 C 33,1 C 6,1 km/h (2 Bft)
12.06.2019 13:35 29,1 C 19,7 C 27,8 C 33,2 C 33,2 C 4,1 C 70 % 71 % 1007,0 hPa 0,0 l/m 4,7 km/h (1 Bft) O-NO 67 5 min 23,1 C 33,2 C 6,0 km/h (2 Bft)
12.06.2019 13:40 29,2 C 19,7 C 27,9 C 33,5 C 33,5 C 4,3 C 70 % 71 % 1007,0 hPa 0,0 l/m 4,2 km/h (1 Bft) N-NO 22 5 min 23,1 C 33,5 C 7,4 km/h (2 Bft)
12.06.2019 13:45 29,5 C 19,7 C 28,1 C 34,0 C 34,0 C 4,5 C 69 % 69 % 1006,8 hPa 0,0 l/m 3,9 km/h (1 Bft) O 90 5 min 23,2 C 34,0 C 3,7 km/h (1 Bft)
12.06.2019 13:50 29,7 C 19,8 C 28,2 C 34,3 C 34,3 C 4,6 C 68 % 71 % 1006,8 hPa 0,0 l/m 3,2 km/h (1 Bft) W 270 5 min 23,1 C 34,3 C 1,6 km/h (1 Bft)
12.06.2019 13:55 30,3 C 19,8 C 28,5 C 35,6 C 35,6 C 5,3 C 68 % 68 % 1006,8 hPa 0,0 l/m 2,1 km/h (1 Bft) O-NO 67 5 min 23,7 C 35,6 C 5,8 km/h (2 Bft)
12.06.2019 14:00 30,5 C 19,8 C 28,9 C 36,0 C 36,0 C 5,5 C 66 % 66 % 1006,8 hPa 0,0 l/m 1,8 km/h (1 Bft) O 90 5 min 23,4 C 36,0 C 2,6 km/h (1 Bft)
12.06.2019 14:05 30,9 C 19,8 C 28,9 C 36,4 C 36,4 C 5,5 C 64 % 66 % 1006,6 hPa 0,0 l/m 2,9 km/h (1 Bft) O-NO 67 5 min 23,3 C 36,4 C 6,6 km/h (2 Bft)
12.06.2019 14:11 30,7 C 19,8 C 28,9 C 35,4 C 35,4 C 4,7 C 63 % 65 % 1006,6 hPa 0,0 l/m 3,2 km/h (1 Bft) N 0 6 min 22,8 C 35,4 C 1,6 km/h (1 Bft)
12.06.2019 14:26 31,2 C 19,8 C 29,7 C 36,6 C 36,6 C 5,4 C 60 % 61 % 1006,3 hPa 0,0 l/m 1,6 km/h (1 Bft) O-NO 67 15 min 22,5 C 36,6 C 2,9 km/h (1 Bft)
12.06.2019 14:35 31,9 C 19,9 C 29,9 C 37,5 C 37,5 C 5,6 C 51 % 56 % 1006,3 hPa 0,0 l/m 3,1 km/h (1 Bft) N-NW 337 9 min 20,5 C 37,5 C 15,8 km/h (3 Bft)
12.06.2019 14:40 32,0 C 19,9 C 30,1 C 37,7 C 37,7 C 5,7 C 51 % 53 % 1006,3 hPa 0,0 l/m 2,7 km/h (1 Bft) NO 45 5 min 20,6 C 37,7 C 5,1 km/h (1 Bft)
12.06.2019 14:45 32,1 C 19,9 C 30,1 C 37,7 C 37,7 C 5,6 C 49 % 54 % 1005,8 hPa 0,0 l/m 2,9 km/h (1 Bft) N-NO 22 5 min 20,0 C 37,7 C 2,1 km/h (1 Bft)
12.06.2019 14:50 32,3 C 19,9 C 30,1 C 38,0 C 38,0 C 5,7 C 49 % 53 % 1005,8 hPa 0,0 l/m 3,1 km/h (1 Bft) W 270 5 min 20,2 C 38,0 C 1,8 km/h (1 Bft)
12.06.2019 14:55 32,8 C 20,0 C 30,2 C 38,9 C 38,9 C 6,1 C 49 % 51 % 1005,8 hPa 0,0 l/m 1,4 km/h (1 Bft) O-NO 67 5 min 20,6 C 38,9 C 0,0 km/h (0 Bft)
12.06.2019 15:00 33,0 C 20,0 C 29,9 C 39,1 C 39,1 C 6,1 C 48 % 53 % 1005,8 hPa 0,0 l/m 1,0 km/h (0 Bft) NO 45 5 min 20,5 C 39,1 C 2,9 km/h (1 Bft)
12.06.2019 15:05 32,6 C 20,0 C 29,4 C 36,9 C 36,9 C 4,3 C 46 % 53 % 1005,8 hPa 0,0 l/m 1,6 km/h (1 Bft) N-NO 22 5 min 19,4 C 36,9 C 4,2 km/h (1 Bft)
12.06.2019 15:10 32,2 C 20,0 C 29,0 C 34,9 C 34,9 C 2,7 C 47 % 53 % 1005,8 hPa 0,0 l/m 1,6 km/h (1 Bft) N-NO 22 0 min 19,4 C 34,9 C 0,0 km/h (0 Bft)
12.06.2019 15:15 31,9 C 20,0 C 28,5 C 33,3 C 33,3 C 1,4 C 48 % 55 % 1005,8 hPa 0,0 l/m 0,6 km/h (0 Bft) NO 45 0 min 19,5 C 33,3 C 0,0 km/h (0 Bft)
12.06.2019 15:20 31,5 C 20,1 C 28,3 C 32,4 C 32,4 C 0,9 C 48 % 55 % 1005,8 hPa 0,0 l/m 0,2 km/h (0 Bft) O-NO 67 0 min 19,1 C 32,4 C 0,0 km/h (0 Bft)
12.06.2019 15:25 31,1 C 20,2 C 27,8 C 31,3 C 31,3 C 0,2 C 48 % 55 % 1005,9 hPa 0,0 l/m 0,2 km/h (0 Bft) W-SW 247 0 min 18,8 C 31,3 C 0,0 km/h (0 Bft)
12.06.2019 15:30 30,8 C 20,2 C 27,5 C 30,8 C 30,7 C 0,0 C 49 % 58 % 1005,9 hPa 0,0 l/m 0,0 km/h (0 Bft) SW 225 0 min 18,8 C 30,7 C 0,0 km/h (0 Bft)
12.06.2019 15:35 30,4 C 20,2 C 27,1 C 30,2 C 29,8 C 0,0 C 56 % 65 % 1005,9 hPa 0,0 l/m 0,5 km/h (0 Bft) W 270 0 min 20,6 C 29,8 C 2,9 km/h (1 Bft)
12.06.2019 15:40 30,0 C 20,2 C 27,1 C 29,7 C 29,1 C 0,0 C 59 % 68 % 1005,9 hPa 0,0 l/m 1,6 km/h (1 Bft) W-NW 292 0 min 21,1 C 29,1 C 8,9 km/h (2 Bft)
12.06.2019 15:45 29,1 C 20,2 C 26,7 C 28,8 C 28,1 C 0,0 C 64 % 70 % 1006,6 hPa 0,0 l/m 4,2 km/h (1 Bft) S-SW 202 0 min 21,6 C 28,1 C 13,2 km/h (3 Bft)
12.06.2019 15:50 28,5 C 20,2 C 26,4 C 28,2 C 27,5 C 0,0 C 65 % 72 % 1006,6 hPa 0,0 l/m 5,3 km/h (1 Bft) S-SW 202 0 min 21,3 C 27,5 C 9,5 km/h (2 Bft)
12.06.2019 15:55 27,7 C 20,3 C 25,8 C 27,0 C 25,6 C 0,0 C 68 % 76 % 1006,6 hPa 0,0 l/m 4,0 km/h (1 Bft) S 180 0 min 21,2 C 25,6 C 3,5 km/h (1 Bft)
12.06.2019 16:00 27,2 C 20,4 C 25,3 C 26,3 C 24,4 C 0,0 C 69 % 78 % 1006,6 hPa 0,0 l/m 2,9 km/h (1 Bft) O-NO 67 0 min 21,0 C 24,4 C 7,4 km/h (2 Bft)
12.06.2019 16:05 25,5 C 20,8 C 23,3 C 24,6 C 22,8 C 0,0 C 73 % 84 % 1008,9 hPa 3,4 l/m 6,3 km/h (2 Bft) SO 135 0 min 20,3 C 22,8 C 30,6 km/h (5 Bft)
12.06.2019 16:11 24,4 C 20,7 C 22,4 C 23,6 C 21,9 C 0,0 C 74 % 86 % 1008,9 hPa 2,1 l/m 7,6 km/h (2 Bft) N 0 0 min 19,5 C 21,9 C 4,0 km/h (1 Bft)
12.06.2019 16:26 22,4 C 21,1 C 21,2 C 21,8 C 20,6 C 0,0 C 82 % 91 % 1008,1 hPa 3,4 l/m 5,1 km/h (1 Bft) O 90 0 min 19,2 C 20,6 C 2,4 km/h (1 Bft)
12.06.2019 16:35 21,9 C 21,1 C 20,8 C 21,4 C 20,5 C 0,0 C 84 % 91 % 1008,1 hPa 0,0 l/m 3,1 km/h (1 Bft) W-SW 247 0 min 19,1 C 20,5 C 6,3 km/h (2 Bft)
12.06.2019 16:40 21,6 C 21,1 C 20,6 C 21,2 C 20,3 C 0,0 C 84 % 92 % 1008,1 hPa 0,0 l/m 3,2 km/h (1 Bft) S 180 0 min 18,8 C 20,3 C 6,0 km/h (2 Bft)
12.06.2019 16:45 21,2 C 21,0 C 20,2 C 20,8 C 19,9 C 0,0 C 84 % 92 % 1010,0 hPa 0,0 l/m 4,5 km/h (1 Bft) S 180 0 min 18,4 C 19,9 C 7,4 km/h (2 Bft)
12.06.2019 16:50 20,8 C 21,1 C 20,0 C 20,4 C 19,7 C 0,0 C 84 % 92 % 1010,0 hPa 0,0 l/m 5,1 km/h (1 Bft) O 90 0 min 18,0 C 19,7 C 7,6 km/h (2 Bft)
12.06.2019 16:55 20,4 C 21,1 C 19,6 C 20,1 C 19,5 C 0,0 C 85 % 92 % 1010,0 hPa 0,0 l/m 4,8 km/h (1 Bft) W-SW 247 0 min 17,8 C 19,5 C 3,4 km/h (1 Bft)
12.06.2019 17:00 20,2 C 21,1 C 19,5 C 19,9 C 19,3 C 0,0 C 85 % 92 % 1010,0 hPa 0,0 l/m 4,5 km/h (1 Bft) S-SO 157 0 min 17,6 C 19,3 C 7,7 km/h (2 Bft)
12.06.2019 17:05 19,9 C 21,0 C 19,2 C 19,6 C 19,1 C 0,0 C 85 % 92 % 1009,9 hPa 0,0 l/m 4,3 km/h (1 Bft) W-SW 247 0 min 17,3 C 19,1 C 4,5 km/h (1 Bft)
12.06.2019 17:10 19,7 C 21,0 C 19,1 C 19,5 C 19,1 C 0,0 C 85 % 92 % 1009,9 hPa 0,0 l/m 5,3 km/h (1 Bft) W 270 0 min 17,1 C 19,1 C 17,7 km/h (3 Bft)
12.06.2019 17:15 19,5 C 21,0 C 19,1 C 19,6 C 19,6 C 0,1 C 86 % 92 % 1009,9 hPa 0,0 l/m 5,8 km/h (2 Bft) SO 135 0 min 17,1 C 19,6 C 5,8 km/h (2 Bft)
12.06.2019 17:20 19,4 C 20,9 C 19,2 C 20,3 C 20,3 C 0,9 C 86 % 93 % 1009,9 hPa 0,0 l/m 6,4 km/h (2 Bft) W 270 0 min 17,0 C 20,3 C 14,2 km/h (3 Bft)
12.06.2019 17:25 19,5 C 20,8 C 19,2 C 21,2 C 21,2 C 1,7 C 86 % 93 % 1010,2 hPa 0,0 l/m 6,3 km/h (2 Bft) NW 315 0 min 17,1 C 21,2 C 3,1 km/h (1 Bft)
12.06.2019 17:30 19,5 C 20,8 C 19,2 C 21,6 C 21,6 C 2,1 C 86 % 93 % 1010,2 hPa 0,0 l/m 6,0 km/h (2 Bft) S-SO 157 0 min 17,1 C 21,6 C 4,8 km/h (1 Bft)
12.06.2019 17:35 19,4 C 20,7 C 19,1 C 21,6 C 21,6 C 2,2 C 86 % 92 % 1010,2 hPa 0,0 l/m 4,3 km/h (1 Bft) W-SW 247 0 min 17,0 C 21,6 C 6,6 km/h (2 Bft)
12.06.2019 17:40 19,3 C 20,7 C 18,9 C 21,4 C 21,4 C 2,1 C 86 % 92 % 1010,2 hPa 0,0 l/m 4,5 km/h (1 Bft) S-SO 157 0 min 16,9 C 21,4 C 2,1 km/h (1 Bft)
12.06.2019 17:45 19,3 C 20,7 C 19,0 C 21,4 C 21,4 C 2,1 C 86 % 92 % 1010,2 hPa 0,0 l/m 4,5 km/h (1 Bft) SW 225 0 min 16,9 C 21,4 C 5,8 km/h (2 Bft)
12.06.2019 17:50 19,3 C 20,7 C 19,0 C 21,8 C 21,8 C 2,5 C 86 % 92 % 1010,2 hPa 0,0 l/m 3,9 km/h (1 Bft) SW 225 0 min 16,9 C 21,8 C 2,6 km/h (1 Bft)
12.06.2019 17:55 19,5 C 20,6 C 19,2 C 22,5 C 22,5 C 3,0 C 86 % 93 % 1010,2 hPa 0,0 l/m 3,1 km/h (1 Bft) W-SW 247 0 min 17,1 C 22,5 C 2,7 km/h (1 Bft)
12.06.2019 18:00 19,5 C 20,6 C 19,4 C 22,9 C 22,9 C 3,4 C 86 % 93 % 1010,2 hPa 0,0 l/m 2,3 km/h (1 Bft) S 180 5 min 17,1 C 22,9 C 2,3 km/h (1 Bft)
12.06.2019 18:05 19,7 C 20,5 C 19,2 C 23,5 C 23,5 C 3,8 C 86 % 92 % 1010,6 hPa 0,0 l/m 2,7 km/h (1 Bft) SW 225 5 min 17,3 C 23,5 C 9,5 km/h (2 Bft)
12.06.2019 18:11 19,7 C 20,5 C 19,0 C 23,0 C 23,0 C 3,3 C 85 % 92 % 1010,6 hPa 0,0 l/m 2,9 km/h (1 Bft) N 0 6 min 17,1 C 23,0 C 1,6 km/h (1 Bft)
12.06.2019 18:26 19,6 C 20,4 C 19,1 C 22,2 C 22,2 C 2,6 C 85 % 92 % 1010,8 hPa 0,0 l/m 1,1 km/h (1 Bft) S-SW 202 0 min 17,0 C 22,2 C 0,0 km/h (0 Bft)
12.06.2019 18:35 19,7 C 20,4 C 19,3 C 22,8 C 22,8 C 3,1 C 85 % 93 % 1010,8 hPa 0,0 l/m 0,3 km/h (0 Bft) SW 225 0 min 17,1 C 22,8 C 0,0 km/h (0 Bft)
12.06.2019 18:40 19,8 C 20,4 C 19,2 C 22,7 C 22,7 C 2,9 C 85 % 93 % 1010,8 hPa 0,0 l/m 0,3 km/h (0 Bft) SO 135 0 min 17,2 C 22,7 C 3,5 km/h (1 Bft)
12.06.2019 18:45 19,7 C 20,4 C 19,1 C 22,3 C 22,3 C 2,6 C 85 % 93 % 1010,7 hPa 0,0 l/m 0,6 km/h (0 Bft) S 180 0 min 17,1 C 22,3 C 0,0 km/h (0 Bft)
12.06.2019 18:50 19,7 C 20,3 C 19,1 C 21,9 C 21,9 C 2,2 C 85 % 93 % 1010,7 hPa 0,0 l/m 0,6 km/h (0 Bft) SW 225 0 min 17,1 C 21,9 C 1,9 km/h (1 Bft)
12.06.2019 18:55 19,6 C 20,3 C 18,9 C 21,4 C 21,4 C 1,8 C 85 % 93 % 1010,7 hPa 0,0 l/m 0,6 km/h (0 Bft) W 270 0 min 17,0 C 21,4 C 0,0 km/h (0 Bft)
12.06.2019 19:00 19,5 C 20,3 C 18,9 C 21,2 C 21,2 C 1,7 C 85 % 93 % 1010,7 hPa 0,0 l/m 1,0 km/h (0 Bft) O-NO 67 0 min 16,9 C 21,2 C 3,7 km/h (1 Bft)
12.06.2019 19:05 19,5 C 20,3 C 18,8 C 21,2 C 21,2 C 1,7 C 85 % 93 % 1010,1 hPa 0,0 l/m 1,1 km/h (1 Bft) S-SO 157 0 min 16,9 C 21,2 C 2,3 km/h (1 Bft)
12.06.2019 19:10 19,4 C 20,3 C 18,9 C 21,7 C 21,7 C 2,3 C 85 % 93 % 1010,1 hPa 0,0 l/m 1,1 km/h (1 Bft) W-SW 247 0 min 16,8 C 21,7 C 0,0 km/h (0 Bft)
12.06.2019 19:15 19,5 C 20,3 C 19,0 C 22,8 C 22,8 C 3,3 C 85 % 93 % 1010,1 hPa 0,0 l/m 0,6 km/h (0 Bft) SW 225 5 min 16,9 C 22,8 C 3,5 km/h (1 Bft)
12.06.2019 19:20 19,5 C 20,2 C 19,1 C 23,4 C 23,4 C 3,9 C 85 % 93 % 1010,1 hPa 0,0 l/m 0,3 km/h (0 Bft) W 270 5 min 16,9 C 23,4 C 0,0 km/h (0 Bft)
12.06.2019 19:25 19,7 C 20,2 C 19,1 C 23,7 C 23,7 C 4,0 C 85 % 93 % 1010,2 hPa 0,0 l/m 0,8 km/h (0 Bft) W 270 5 min 17,1 C 23,7 C 0,0 km/h (0 Bft)
12.06.2019 19:30 19,6 C 20,2 C 19,0 C 23,4 C 23,4 C 3,8 C 84 % 93 % 1010,2 hPa 0,0 l/m 1,0 km/h (0 Bft) S-SO 157 5 min 16,8 C 23,4 C 2,6 km/h (1 Bft)
12.06.2019 19:35 19,5 C 20,2 C 19,0 C 23,1 C 23,1 C 3,6 C 85 % 93 % 1010,2 hPa 0,0 l/m 0,6 km/h (0 Bft) S-SO 157 5 min 16,9 C 23,1 C 0,0 km/h (0 Bft)
12.06.2019 19:40 19,5 C 20,2 C 19,0 C 23,1 C 23,1 C 3,6 C 85 % 93 % 1010,2 hPa 0,0 l/m 0,3 km/h (0 Bft) SW 225 5 min 16,9 C 23,1 C 0,0 km/h (0 Bft)
12.06.2019 19:45 19,5 C 20,1 C 18,8 C 22,5 C 22,5 C 3,0 C 85 % 93 % 1010,7 hPa 0,0 l/m 0,3 km/h (0 Bft) S 180 5 min 16,9 C 22,5 C 1,8 km/h (1 Bft)
12.06.2019 19:50 19,3 C 20,1 C 18,7 C 21,6 C 21,6 C 2,3 C 84 % 93 % 1010,7 hPa 0,0 l/m 0,6 km/h (0 Bft) SO 135 5 min 16,5 C 21,6 C 4,7 km/h (1 Bft)
12.06.2019 19:55 19,3 C 20,1 C 18,7 C 20,8 C 20,8 C 1,5 C 84 % 93 % 1010,7 hPa 0,0 l/m 0,6 km/h (0 Bft) SW 225 0 min 16,5 C 20,8 C 0,0 km/h (0 Bft)
12.06.2019 20:00 19,2 C 20,1 C 18,6 C 20,4 C 20,4 C 1,2 C 84 % 93 % 1010,7 hPa 0,0 l/m 0,6 km/h (0 Bft) S-SW 202 0 min 16,4 C 20,4 C 0,0 km/h (0 Bft)
12.06.2019 20:05 19,1 C 20,1 C 18,5 C 20,0 C 20,0 C 0,9 C 84 % 93 % 1011,5 hPa 0,0 l/m 0,3 km/h (0 Bft) S-SW 202 0 min 16,3 C 20,0 C 0,0 km/h (0 Bft)
12.06.2019 20:11 19,0 C 20,1 C 18,5 C 19,8 C 19,8 C 0,8 C 84 % 93 % 1011,5 hPa 0,0 l/m 0,0 km/h (0 Bft) N 0 0 min 16,2 C 19,8 C 0,0 km/h (0 Bft)
12.06.2019 20:26 19,0 C 20,3 C 18,5 C 19,3 C 19,3 C 0,3 C 84 % 93 % 1011,6 hPa 0,0 l/m 0,5 km/h (0 Bft) NO 45 0 min 16,2 C 19,3 C 0,0 km/h (0 Bft)
12.06.2019 20:35 18,9 C 20,2 C 18,4 C 19,1 C 19,1 C 0,2 C 85 % 93 % 1011,6 hPa 0,0 l/m 0,0 km/h (0 Bft) O-NO 67 0 min 16,3 C 19,1 C 0,0 km/h (0 Bft)
12.06.2019 20:40 18,9 C 20,3 C 18,4 C 19,1 C 19,1 C 0,2 C 85 % 93 % 1011,6 hPa 0,0 l/m 0,0 km/h (0 Bft) NO 45 0 min 16,3 C 19,1 C 0,0 km/h (0 Bft)
12.06.2019 20:45 18,8 C 20,3 C 18,3 C 19,1 C 19,1 C 0,3 C 85 % 93 % 1011,6 hPa 0,0 l/m 0,0 km/h (0 Bft) NW 315 0 min 16,2 C 19,1 C 0,0 km/h (0 Bft)
12.06.2019 20:50 18,9 C 20,2 C 18,3 C 18,9 C 18,9 C 0,0 C 85 % 93 % 1011,6 hPa 0,0 l/m 0,0 km/h (0 Bft) W-SW 247 0 min 16,3 C 18,9 C 0,0 km/h (0 Bft)
12.06.2019 20:55 18,8 C 20,2 C 18,3 C 18,8 C 18,8 C 0,0 C 85 % 93 % 1011,6 hPa 0,0 l/m 0,3 km/h (0 Bft) W 270 0 min 16,2 C 18,8 C 2,4 km/h (1 Bft)
12.06.2019 21:00 18,8 C 20,1 C 18,3 C 18,8 C 18,7 C 0,0 C 85 % 93 % 1011,6 hPa 0,0 l/m 0,3 km/h (0 Bft) W-NW 292 0 min 16,2 C 18,7 C 0,0 km/h (0 Bft)
12.06.2019 21:05 18,6 C 20,1 C 18,1 C 18,6 C 18,6 C 0,0 C 85 % 94 % 1011,9 hPa 0,0 l/m 0,2 km/h (0 Bft) SW 225 0 min 16,0 C 18,6 C 0,0 km/h (0 Bft)
12.06.2019 21:10 18,6 C 20,1 C 18,1 C 18,6 C 18,5 C 0,0 C 85 % 94 % 1011,9 hPa 0,0 l/m 0,0 km/h (0 Bft) S-SW 202 0 min 16,0 C 18,5 C 0,0 km/h (0 Bft)
12.06.2019 21:15 18,5 C 20,0 C 18,0 C 18,5 C 18,4 C 0,0 C 85 % 94 % 1011,9 hPa 0,0 l/m 0,0 km/h (0 Bft) S-SO 157 0 min 15,9 C 18,4 C 0,0 km/h (0 Bft)
12.06.2019 21:20 18,4 C 20,0 C 17,9 C 18,4 C 18,3 C 0,0 C 85 % 93 % 1011,9 hPa 0,0 l/m 0,2 km/h (0 Bft) S-SW 202 0 min 15,8 C 18,3 C 1,6 km/h (1 Bft)
12.06.2019 21:25 18,3 C 19,9 C 17,7 C 18,2 C 18,1 C 0,0 C 85 % 93 % 1012,1 hPa 0,0 l/m 0,3 km/h (0 Bft) S 180 0 min 15,7 C 18,1 C 1,8 km/h (1 Bft)
12.06.2019 21:30 18,0 C 19,9 C 17,6 C 18,0 C 17,9 C 0,0 C 84 % 93 % 1012,1 hPa 0,0 l/m 0,6 km/h (0 Bft) SW 225 0 min 15,3 C 17,9 C 0,0 km/h (0 Bft)
12.06.2019 21:35 17,8 C 19,8 C 17,5 C 17,8 C 17,7 C 0,0 C 83 % 92 % 1012,1 hPa 0,0 l/m 1,1 km/h (1 Bft) W-SW 247 0 min 14,9 C 17,7 C 1,9 km/h (1 Bft)
12.06.2019 21:40 17,6 C 19,8 C 17,3 C 17,6 C 17,6 C 0,0 C 83 % 92 % 1012,1 hPa 0,0 l/m 1,0 km/h (0 Bft) SO 135 0 min 14,7 C 17,6 C 0,0 km/h (0 Bft)
12.06.2019 21:45 17,5 C 19,8 C 17,1 C 17,4 C 17,2 C 0,0 C 82 % 91 % 1012,5 hPa 0,0 l/m 1,6 km/h (1 Bft) SO 135 0 min 14,4 C 17,2 C 9,3 km/h (2 Bft)
12.06.2019 21:50 17,2 C 19,8 C 16,9 C 17,1 C 17,0 C 0,0 C 81 % 92 % 1012,5 hPa 0,0 l/m 1,3 km/h (1 Bft) O-NO 67 0 min 13,9 C 17,0 C 0,0 km/h (0 Bft)
12.06.2019 21:55 17,3 C 19,8 C 16,7 C 17,1 C 16,7 C 0,0 C 81 % 92 % 1012,5 hPa 0,0 l/m 0,5 km/h (0 Bft) SO 135 0 min 14,0 C 16,7 C 0,0 km/h (0 Bft)
12.06.2019 22:00 17,2 C 19,7 C 16,7 C 17,0 C 16,6 C 0,0 C 81 % 91 % 1012,5 hPa 0,0 l/m 0,3 km/h (0 Bft) O-SO 112 0 min 13,9 C 16,6 C 3,4 km/h (1 Bft)
12.06.2019 22:05 16,9 C 19,7 C 16,6 C 16,7 C 16,4 C 0,0 C 81 % 90 % 1012,8 hPa 0,0 l/m 0,5 km/h (0 Bft) SO 135 0 min 13,6 C 16,4 C 2,3 km/h (1 Bft)
12.06.2019 22:11 16,8 C 19,7 C 16,4 C 16,6 C 16,3 C 0,0 C 80 % 90 % 1012,8 hPa 0,0 l/m 0,8 km/h (0 Bft) N 0 0 min 13,3 C 16,3 C 0,0 km/h (0 Bft)
12.06.2019 22:26 16,4 C 19,6 C 16,1 C 16,2 C 15,9 C 0,0 C 79 % 90 % 1013,2 hPa 0,0 l/m 0,5 km/h (0 Bft) W-SW 247 0 min 12,7 C 15,9 C 0,0 km/h (0 Bft)
12.06.2019 22:35 16,1 C 19,5 C 15,9 C 16,0 C 15,7 C 0,0 C 79 % 90 % 1013,2 hPa 0,0 l/m 0,2 km/h (0 Bft) O 90 0 min 12,5 C 15,7 C 0,0 km/h (0 Bft)
12.06.2019 22:40 16,1 C 19,5 C 15,8 C 15,9 C 15,6 C 0,0 C 79 % 90 % 1013,2 hPa 0,0 l/m 0,0 km/h (0 Bft) SO 135 0 min 12,5 C 15,6 C 0,0 km/h (0 Bft)
12.06.2019 22:45 16,0 C 19,5 C 15,7 C 15,9 C 15,6 C 0,0 C 79 % 91 % 1013,2 hPa 0,0 l/m 0,0 km/h (0 Bft) S 180 0 min 12,4 C 15,6 C 0,0 km/h (0 Bft)
12.06.2019 22:50 16,0 C 19,5 C 15,7 C 15,8 C 15,5 C 0,0 C 79 % 91 % 1013,2 hPa 0,0 l/m 0,0 km/h (0 Bft) S 180 0 min 12,4 C 15,5 C 0,0 km/h (0 Bft)
12.06.2019 22:55 16,0 C 19,5 C 15,7 C 15,8 C 15,4 C 0,0 C 80 % 91 % 1013,2 hPa 0,0 l/m 0,0 km/h (0 Bft) S-SW 202 0 min 12,5 C 15,4 C 0,0 km/h (0 Bft)
12.06.2019 23:00 16,0 C 19,5 C 15,7 C 15,8 C 15,4 C 0,0 C 80 % 91 % 1013,2 hPa 0,0 l/m 0,2 km/h (0 Bft) O-NO 67 0 min 12,5 C 15,4 C 0,0 km/h (0 Bft)
12.06.2019 23:05 16,0 C 19,5 C 15,7 C 15,8 C 15,4 C 0,0 C 80 % 91 % 1013,4 hPa 0,0 l/m 0,2 km/h (0 Bft) W-NW 292 0 min 12,5 C 15,4 C 0,0 km/h (0 Bft)
12.06.2019 23:10 15,9 C 19,5 C 15,6 C 15,7 C 15,4 C 0,0 C 80 % 90 % 1013,4 hPa 0,0 l/m 0,2 km/h (0 Bft) SO 135 0 min 12,5 C 15,4 C 0,0 km/h (0 Bft)
12.06.2019 23:15 15,8 C 19,5 C 15,6 C 15,7 C 15,4 C 0,0 C 80 % 90 % 1013,4 hPa 0,0 l/m 0,5 km/h (0 Bft) SO 135 0 min 12,4 C 15,4 C 0,0 km/h (0 Bft)
12.06.2019 23:20 15,9 C 19,5 C 15,5 C 15,7 C 15,3 C 0,0 C 81 % 90 % 1013,4 hPa 0,0 l/m 0,3 km/h (0 Bft) O-NO 67 0 min 12,6 C 15,3 C 0,0 km/h (0 Bft)
12.06.2019 23:25 15,8 C 19,5 C 15,3 C 15,5 C 14,8 C 0,0 C 81 % 90 % 1013,5 hPa 0,0 l/m 0,0 km/h (0 Bft) O-NO 67 0 min 12,5 C 14,8 C 0,0 km/h (0 Bft)
12.06.2019 23:30 15,8 C 19,5 C 15,2 C 15,3 C 14,4 C 0,0 C 81 % 90 % 1013,5 hPa 0,0 l/m 0,0 km/h (0 Bft) NO 45 0 min 12,5 C 14,4 C 0,0 km/h (0 Bft)
12.06.2019 23:35 15,7 C 19,5 C 15,1 C 15,2 C 14,1 C 0,0 C 81 % 90 % 1013,5 hPa 0,0 l/m 0,0 km/h (0 Bft) N-NW 337 0 min 12,4 C 14,1 C 0,0 km/h (0 Bft)
12.06.2019 23:40 15,7 C 19,5 C 15,0 C 15,2 C 14,1 C 0,0 C 81 % 91 % 1013,5 hPa 0,0 l/m 0,0 km/h (0 Bft) S-SW 202 0 min 12,4 C 14,1 C 0,0 km/h (0 Bft)
12.06.2019 23:45 15,6 C 19,5 C 15,1 C 15,1 C 14,0 C 0,0 C 82 % 91 % 1014,7 hPa 0,0 l/m 0,0 km/h (0 Bft) W-NW 292 0 min 12,5 C 14,0 C 0,0 km/h (0 Bft)
12.06.2019 23:50 15,6 C 19,5 C 15,1 C 15,1 C 14,1 C 0,0 C 82 % 91 % 1014,7 hPa 0,0 l/m 0,0 km/h (0 Bft) NW 315 0 min 12,5 C 14,1 C 0,0 km/h (0 Bft)
12.06.2019 23:55 15,6 C 19,4 C 15,1 C 15,1 C 14,1 C 0,0 C 82 % 91 % 1014,7 hPa 0,0 l/m 0,2 km/h (0 Bft) SW 225 0 min 12,5 C 14,1 C 0,0 km/h (0 Bft)
_ Min-Zeit 23:45 09:45 23:40 23:45 23:45 00:00 15:05 14:55 14:45 - 01:25 - - - 23:15 23:45 00:05
Minimum _ 15,6 C 19,1 C 15,0 C 15,1 C 14,0 C 0,0 C 46 % 51 % 1005,8 hPa - 0,0 km/h (0 Bft) - - - 12,4 C 14,0 C 0,0 km/h (0 Bft)
_ Max-Zeit 15:00 16:26 14:55 15:00 15:00 09:00 04:26 21:05 23:45 16:05 16:11 - - 10:26 13:55 15:00 16:05
Maximum _ 33,0 C 21,1 C 30,2 C 39,1 C 39,1 C 7,2 C 87 % 94 % 1014,7 hPa 3,4 l/m 7,6 km/h
N (2 Bft)
- - 15 min 23,7 C 39,1 C 30,6 km/h
SO (5 Bft)
Durchschnitt _ 21,3 C 19,8 C 20,6 C 23,2 C 23,0 C 2,0 C 80 % 85 % 1009,4 hPa #8,9 l/m 1,6 km/h (1 Bft) O-NO - #7:26 h 17,6 C 23,0 C 2,3 km/h (1 Bft)
2019 www.wetterstation-wechselburg.de